Terminal Aerodrome Forecast
Issued by NWS Columbia, SC

Home | Current Version | Previous Version | Text Only | Print | Product List | Glossary On
Versions: 1 2 3 4 5 6 7 8 9 10 11 12 13 14 15 16 17 18 19 20 21 22 23 24 25 26 27 28 29 30 31 32 33 34 35 36 37 38 39 40 41 42 43 44
000
FTUS42 KCAE 231125
TAFAGS
TAF
KAGS 231125Z 2312/2412 VRB05KT P6SM BKN060
     FM231600 15007KT P6SM VCSH BKN035
     FM232200 17008KT 3SM SHRA VCTS OVC025CB WS015/15030KT
      TEMPO 2323/2403 +TSRA=

USA.gov is the U.S. government's official web portal to all federal, state and local government web resources and services.